Weather History for KFVE - October, 2012

Change the Weather History Date:

Friday, October 5, 2012

  Actual Average Record
Temperature  
Mean Temperature 56 °F 46 °F  
Max Temperature 61 °F 54 °F 79 °F (2005)
Min Temperature 50 °F 38 °F 25 °F (1999)
Degree Days  
Heating Degree Days 9    
Month to date heating degree days 54  
Since 1 July heating degree days 416  
Cooling Degree Days 0    
Month to date cooling degree days 0  
Year to date cooling degree days 203  
Growing Degree Days 6 (Base 50)    
Moisture  
Dew Point 54 °F    
Average Humidity 94    
Maximum Humidity 100    
Minimum Humidity 82    
Precipitation  
Precipitation 0.13 in 0.09 in 0.89 in (2014)
Month to date precipitation 0.57 0.43  
Year to date precipitation 24.45 26.01  
Sea Level Pressure  
Sea Level Pressure 29.86 in    
Wind  
Wind Speed 6 mph (SSE)    
Max Wind Speed 14 mph    
Max Gust Speed 17 mph    
Visibility 10 miles    
Events Rain    
T = Trace of Precipitation, MM = Missing Value Source: NWS Daily Summary

Daily Weather History Graph

Daily Weather History Graph

Search for Another Location

Airport or City:

Trip Planner

Search our weather history database for the weather conditions in past years. The results will help you decide how hot, cold, wet, or windy it might be!

Date:

Astronomy

Oct. 05, 2012 Rise Set
Actual Time 6:38 AM EDT 6:03 PM EDT
Civil Twilight 6:07 AM EDT 6:34 PM EDT
Nautical Twilight 5:32 AM EDT 7:09 PM EDT
Astronomical Twilight 4:56 AM EDT 7:45 PM EDT
Moon 9:05 PM EDT (10/5) 12:02 PM EDT (10/5)
Length of Visible Light 12h 26m
Length of Day
11h 25m
Waning Gibbous, 74% of the Moon is Illuminated
Oct 5
Waning Gibbous
Oct 8
Last Quarter
Oct 15
New
Oct 21
First Quarter
Oct 29
Full

Hourly Weather History & Observations

Time (EDT) Temp. Dew Point Humidity Pressure Visibility Wind Dir Wind Speed Gust Speed Precip Events Conditions
12:53 AM 50.0 °F 48.9 °F 96% 29.98 in 10.0 mi SSE 9.2 mph 17.3 mph 0.06 in Rain Heavy Rain
1:53 AM 50.0 °F 48.9 °F 96% 29.98 in 10.0 mi SSE 8.1 mph - 0.16 in Rain Light Rain
2:53 AM 50.0 °F 48.9 °F 96% 29.95 in 10.0 mi SSE 9.2 mph - 0.00 in   Overcast
3:53 AM 50.0 °F 48.9 °F 96% 29.94 in 10.0 mi SSE 4.6 mph - N/A   Overcast
4:53 AM 50.0 °F 48.9 °F 96% 29.93 in 10.0 mi SSE 6.9 mph - N/A   Overcast
5:53 AM 50.0 °F 48.9 °F 96% 29.92 in 10.0 mi SSE 6.9 mph - N/A   Overcast
6:53 AM 50.0 °F 48.9 °F 96% 29.91 in 10.0 mi SSE 5.8 mph - N/A   Overcast
7:53 AM 50.0 °F 50.0 °F 100% 29.91 in 10.0 mi South 6.9 mph - N/A   Overcast
8:53 AM 50.0 °F 50.0 °F 100% 29.90 in 10.0 mi SSE 8.1 mph - N/A   Overcast
9:53 AM 51.1 °F 51.1 °F 100% 29.90 in 10.0 mi South 4.6 mph - N/A   Overcast
10:53 AM 52.0 °F 52.0 °F 100% 29.88 in 10.0 mi SSE 5.8 mph - N/A   Overcast
11:53 AM 53.6 °F 51.8 °F 94% 29.87 in 10.0 mi SSE 5.8 mph - N/A   Overcast
12:53 PM 53.6 °F 53.6 °F 100% 29.87 in 10.0 mi South 8.1 mph - N/A   Overcast
1:53 PM 55.9 °F 55.0 °F 97% 29.86 in 10.0 mi SSE 4.6 mph - N/A   Overcast
2:37 PM 57.2 °F 55.4 °F 94% 29.85 in 10.0 mi South 5.8 mph - N/A   Overcast
2:53 PM 57.9 °F 55.0 °F 90% 29.84 in 10.0 mi SSE 4.6 mph - N/A   Overcast
3:10 PM 59.0 °F 55.4 °F 88% 29.83 in 10.0 mi SE 5.8 mph - N/A   Overcast
3:13 PM 59.0 °F 55.4 °F 88% 29.83 in 10.0 mi ESE 6.9 mph - N/A   Overcast
3:23 PM 59.0 °F 55.4 °F 88% 29.83 in 10.0 mi SSE 6.9 mph - N/A   Mostly Cloudy
3:32 PM 59.0 °F 55.4 °F 88% 29.83 in 10.0 mi SE 8.1 mph - N/A   Mostly Cloudy
3:53 PM 60.1 °F 55.9 °F 86% 29.82 in 10.0 mi SE 10.4 mph - N/A   Mostly Cloudy
4:06 PM 60.8 °F 55.4 °F 82% 29.84 in 10.0 mi South 6.9 mph - N/A   Mostly Cloudy
4:15 PM 60.8 °F 55.4 °F 82% 29.83 in 10.0 mi SSE 6.9 mph - N/A   Scattered Clouds
4:53 PM 61.0 °F 57.0 °F 87% 29.83 in 10.0 mi South 3.5 mph - N/A   Overcast
5:53 PM 59.0 °F 55.9 °F 90% 29.83 in 10.0 mi South 4.6 mph - N/A   Overcast
6:53 PM 57.9 °F 57.0 °F 97% 29.83 in 10.0 mi SE 5.8 mph - N/A   Overcast
7:13 PM 57.2 °F 57.2 °F 100% 29.82 in 10.0 mi SE 8.1 mph - N/A   Overcast
7:53 PM 57.9 °F 55.9 °F 93% 29.82 in 10.0 mi SE 6.9 mph - N/A   Overcast
8:15 PM 57.2 °F 55.4 °F 94% 29.81 in 10.0 mi SE 9.2 mph - N/A   Overcast
8:53 PM 57.9 °F 55.9 °F 93% 29.81 in 10.0 mi SSE 6.9 mph - N/A   Overcast
9:53 PM 57.9 °F 55.9 °F 93% 29.81 in 10.0 mi South 8.1 mph - N/A   Overcast
10:01 PM 57.2 °F 55.4 °F 94% 29.81 in 10.0 mi South 6.9 mph - N/A   Overcast
10:19 PM 57.2 °F 55.4 °F 94% 29.81 in 10.0 mi South 4.6 mph - N/A   Overcast
10:26 PM 57.2 °F 55.4 °F 94% 29.81 in 10.0 mi Calm Calm - N/A   Overcast
10:37 PM 57.2 °F 55.4 °F 94% 29.81 in 10.0 mi South 5.8 mph - N/A   Overcast
10:53 PM 57.0 °F 55.9 °F 96% 29.81 in 10.0 mi South 6.9 mph - N/A   Overcast
11:53 PM 57.0 °F 55.9 °F 96% 29.80 in 10.0 mi South 3.5 mph - N/A   Overcast